This is the latest recevied weather packets stored in our database for station/object SP8NFE-1. If no packets are shown the sender has not sent any weather packets the latest 10 day(s).
| Time | Temp. | Humidity | Pressure | Rain* | Wind** | Luminosity | Snow |
|---|---|---|---|---|---|---|---|
| 1777532732 | 6.11° C | 51% | 0 hPa | 0 mm | - | - | - |
| 1777532432 | 6.11° C | 50% | 0 hPa | 0 mm | - | - | - |
| 1777532132 | 6.11° C | 52% | 0 hPa | 0 mm | - | - | - |
| 1777531832 | 6.11° C | 52% | 0 hPa | 0 mm | - | - | - |
| 1777531532 | 6.11° C | 53% | 0 hPa | 0 mm | - | - | - |
| 1777531232 | 5.56° C | 55% | 0 hPa | 0 mm | - | - | - |
| 1777530932 | 5.56° C | 56% | 0 hPa | 0 mm | - | - | - |
| 1777530632 | 5° C | 61% | 0 hPa | 0 mm | - | - | - |
| 1777530332 | 4.44° C | 62% | 0 hPa | 0 mm | - | - | - |
| 1777530032 | 3.89° C | 71% | 0 hPa | 0 mm | - | - | - |
| 1777529732 | 3.33° C | 75% | 0 hPa | 0 mm | - | - | - |
| 1777529432 | 2.78° C | 81% | 0 hPa | 0 mm | - | - | - |
| 1777529132 | 2.22° C | 82% | 0 hPa | 0 mm | - | - | - |
| 1777528832 | 1.67° C | 86% | 0 hPa | 0 mm | - | - | - |
| 1777528532 | 1.11° C | 86% | 0 hPa | 0 mm | - | - | - |
| 1777528232 | 1.11° C | 91% | 0 hPa | 0 mm | - | - | - |
| 1777527932 | 0.56° C | 95% | 0 hPa | 0 mm | - | - | - |
| 1777527632 | 0° C | 96% | 0 hPa | 0 mm | - | - | - |
| 1777527332 | -0.56° C | 97% | 0 hPa | 0 mm | - | - | - |
| 1777527032 | -1.11° C | 99% | 0 hPa | 0 mm | - | - | - |
| 1777526732 | -1.11° C | 99% | 0 hPa | 0 mm | - | - | - |
| 1777526432 | -1.67° C | 100% | 0 hPa | 0 mm | - | - | - |
| 1777526132 | -2.22° C | 100% | 0 hPa | 0 mm | - | - | - |
| 1777525832 | -2.22° C | 100% | 0 hPa | 0 mm | - | - | - |
| 1777525532 | -2.22° C | 100% | 0 hPa | 0 mm | - | - | - |
* Rain latest hour (hover to see other rain measurements)
** Current wind speed in m/s (hover to see current wind gust speed)